Regional Weather Roundup
Issued by NWS Northern Indiana

Home | Current Version | Previous Version | Text Only | Print | Product List | Glossary Off
Versions: 1 2 3 4 5 6 7 8 9 10 11 12 13 14 15 16 17 18 19 20 21 22 23 24 25 26 27 28 29 30 31 32 33 34 35 36 37 38 39 40 41 42 43 44 45 46 47 48 49 50

000
ASUS43 KIWX 061800
RWRIWX

KIWX WEATHER ROUNDUP
NATIONAL WEATHER SERVICE NORTHERN INDIANA
200 PM EDT MON JUL 06 2015

NOTE: "FAIR" INDICATES FEW OR NO CLOUDS BELOW 12,000 FEET WITH NO
SIGNIFICANT WEATHER AND/OR OBSTRUCTIONS TO VISIBILITY.

* THESE STATIONS ARE NOT UNDER NWS QUALITY CONTROL. THEY ALSO MAY NOT
  REPORT WEATHER SUCH AS PRECIPITATION OR FOG.

INZ001>027-061900-
NORTHERN INDIANA

CITY           SKY/WX    TMP DP  RH WIND       PRES   REMARKS
SOUTH BEND     MOSUNNY   83  65  54 S14       30.00F
6HR MIN TEMP:  69; 6HR MAX TEMP:  84;

ELKHART*       MOSUNNY   82  64  54 SW10      30.01
GOSHEN         MOSUNNY   81  68  64 S10       30.01F
6HR MIN TEMP:  66; 6HR MAX TEMP:  82;

ANGOLA*          N/A     82  66  57 W10       30.05F
FORT WAYNE     MOSUNNY   83  66  56 SW12      30.06S
6HR MIN TEMP:  64; 6HR MAX TEMP:  83;

PERU/GRISSOM   SUNNY     82  67  61 SW13      30.02F
6HR MIN TEMP:  68; 6HR MAX TEMP:  82;


$$
INZ028>050-061900-
CENTRAL INDIANA

CITY           SKY/WX    TMP DP  RH WIND       PRES   REMARKS
LAFAYETTE      SUNNY     82  68  62 SW8       30.01F
6HR MIN TEMP:  67; 6HR MAX TEMP:  83;

KOKOMO*        PTSUNNY   84  66  54 SW12      30.04F
6HR MIN TEMP:  64; 6HR MAX TEMP:  84;

MUNCIE*        MOSUNNY   83  67  58 SW8G20    30.07F
6HR MIN TEMP:  67; 6HR MAX TEMP:  83;

INDIANAPOLIS   MOSUNNY   82  65  56 SW8       30.05S
6HR MIN TEMP:  67; 6HR MAX TEMP:  83;


$$
MIZ043>046-050>051-056>058-064>065-071>073-077>080-061900-
SOUTHWEST LOWER MICHIGAN

CITY           SKY/WX    TMP DP  RH WIND       PRES   REMARKS
BATTLE CREEK   MOSUNNY   82  66  58 S13       30.02F
6HR MIN TEMP:  66; 6HR MAX TEMP:  83;

BENTON HARBOR  PTSUNNY   82  65  56 S13       29.97F
6HR MIN TEMP:  67; 6HR MAX TEMP:  83;

COLDWATER*     MOSUNNY   80  63  56 SW7       30.03F
6HR MIN TEMP:  64; 6HR MAX TEMP:  80;

HILLSDALE*     MOSUNNY   82  62  51 SW8       30.06S
6HR MIN TEMP:  64; 6HR MAX TEMP:  82;

HOLLAND        PTSUNNY   83  64  52 S12       29.98F
6HR MIN TEMP:  66; 6HR MAX TEMP:  83;

GRAND RAPIDS   PTSUNNY   82  65  56 S9G17     29.99F
6HR MIN TEMP:  66; 6HR MAX TEMP:  83;

KALAMAZOO      MOSUNNY   83  67  58 SW13      30.01F
6HR MIN TEMP:  66; 6HR MAX TEMP:  83;

STURGIS*       MOSUNNY   81  68  65 SW13      30.02F
THREE RIVERS*  FAIR      82  67  60 S9G16     30.01F
6HR MIN TEMP:  65; 6HR MAX TEMP:  82;


$$
OHZ001>008-015>018-024>025-061900-
NORTHWEST OHIO

CITY           SKY/WX    TMP DP  RH WIND       PRES   REMARKS
DEFIANCE       MOSUNNY   83  63  50 SW8       30.05S
6HR MIN TEMP:  63; 6HR MAX TEMP:  83;

FINDLAY        SUNNY     81  59  47 SW8       30.05F
6HR MIN TEMP:  64; 6HR MAX TEMP:  82;

TOLEDO EXPRESS SUNNY     82  62  50 SW7       30.04F
6HR MIN TEMP:  61; 6HR MAX TEMP:  82;

TOLEDO METCALF SUNNY     82  56  40 SW7       30.05F
6HR MIN TEMP:  64; 6HR MAX TEMP:  82;

LIMA           MOSUNNY   80  63  55 W8        30.07S
6HR MIN TEMP:  64; 6HR MAX TEMP:  80;


$$
AND FOR LAKE MICHIGAN COASTAL AND OPEN LAKE BUOY OBSERVATIONS

STATION/POSITION TEMP    WIND        PRES    VSBY  WAVE
                 AIR SEA DIR/SP/G                  HT/PER
                 (F)     (DEG/KT/KT) (MB)    (MI)  (FT/S)
CALUMET HARBOR    81     180/  9/ 15   N/A
MICHIGAN CITY     79     160/ 11/ 15   N/A
BURNS HARBOR      81     190/ 14/ 21 1015.9F
SAINT JOSEPH      73     180/ 10/ 12 1016.6F
4 MI NW BRIDGMAN  71 66  220/  6/  6   N/A           1
MICHIGAN CITY     75 67  190/ 10/ 14   N/A           1
MICHIGAN CITY CG  82 66  160/ 11       N/A       6   1

$$
&&



USA.gov is the U.S. government's official web portal to all federal, state and local government web resources and services.